Regional Weather Roundup
Issued by NWS

Home | Current Version | Previous Version | Graphics & Text | Print | Product List | Glossary On
Versions: 1 2 3 4 5 6 7 8 9 10 11 12 13 14 15 16 17 18 19 20 21 22 23 24 25 26 27 28 29 30 31 32 33 34 35 36 37 38 39 40 41 42 43 44 45 46 47 48 49 50
886
ASUS43 KFSD 240402
RWRSD

WEATHER ROUNDUP FOR SOUTH DAKOTA
NATIONAL WEATHER SERVICE SIOUX FALLS SD
1100 PM CDT WED AUG 23 2017

NOTE: "FAIR" INDICATES FEW OR NO CLOUDS BELOW 12,000 FEET WITH NO
SIGNIFICANT WEATHER AND/OR OBSTRUCTIONS TO VISIBILITY.


SDZ001>005-009-010-012>017-240500-
NORTHWEST AND NORTH CENTRAL SOUTH DAKOTA

CITY           SKY/WX    TMP DP  RH WIND       PRES   REMARKS
BUFFALO          N/A     71  53  52 E10       29.92R
FAITH            N/A     68  60  75 E10       29.97R
MOBRIDGE       CLEAR     69  61  75 E10       29.93S
$$

SDZ012>016-024>037-041>051-057-063-072>074-240500-
SOUTHWEST AND SOUTH CENTRAL SOUTH DAKOTA

CITY           SKY/WX    TMP DP  RH WIND       PRES   REMARKS
RAPID CTY ARPT CLEAR     73  54  51 E10       29.98R
PIERRE         CLEAR     68  61  78 NE12      29.89S
CUSTER         CLOUDY    67  44  43 E16       30.14R
ELLSWORTH AFB  CLEAR     73  53  49 S6        29.98R
PHILIP         CLOUDY    69  59  70 NE7       29.92S
PINE RIDGE     LGT RAIN  70  60  70 E10       29.96S
SPEARFISH      FAIR      64  46  52 SE7       30.02S
WINNER         FAIR      76  61  59 S15       29.89R
$$

SDZ004>011-016>023-039-040-240500-
NORTHEAST SOUTH DAKOTA

CITY           SKY/WX    TMP DP  RH WIND       PRES   REMARKS
ABERDEEN       CLEAR     61  58  90 E7        29.97R
WATERTOWN      CLEAR     65  60  84 SE8       29.98S
BROOKINGS      PTCLDY    65  60  84 SE10      30.00S
SISSETON         N/A     58  56  93 SE3       30.00R
$$

SDZ017-020-022-023-036>040-048>070-240500-
SOUTHEAST SOUTH DAKOTA

CITY           SKY/WX    TMP DP  RH WIND       PRES   REMARKS
SIOUX FALLS    MOCLDY    70  61  73 S14       29.99S
HURON          MOCLDY    70  61  73 SE14G22   29.93F
CHAMBERLAIN    CLEAR     69  64  85 E6        29.88S
MITCHELL       PTCLDY    70  61  73 SE13      29.94S
YANKTON        MOCLDY    68  61  78 SE9       29.97F
$$

ABBREVIATIONS USED IN REMARKS
   TC - TEMPERATURE IN CELSIUS
  WCI - WIND CHILL INDEX
   HX - HEAT INDEX
  VSB - VISIBILITY





USA.gov is the U.S. government's official web portal to all federal, state and local government web resources and services.